CAPE
2 3 4 3 3 2 2 5 2 2 1 1 1 1 1 0 1 1 1 0 0 0 0 1 1 3 5 7 8 8 10 9 9 9 8 6 5 5 5 8 8 10 9 7 7 3 nan nan nan nan nan nan nan nan nan nan nan 0 2 3 3 5 5 5 5 6 4 2 1 1 nan nan nan nan nan nan nan nan nan 0 0 nan nan nan nan nan
2 3 4 4 4 2 2 5 2 2 1 0 1 1 1 1 1 1 1 0 0 nan nan nan nan 4 8 9 11 11 12 12 11 11 10 5 4 4 5 8 8 10 10 6 6 2 nan nan nan nan nan nan nan nan nan nan nan nan nan nan nan nan 0 0 0 1 0 nan nan nan nan nan nan nan nan nan nan nan nan 0 0 nan nan nan nan nan
3 3 4 4 4 2 2 6 5 5 2 1 1 1 1 1 0 0 0 0 0 nan nan nan nan nan 8 12 14 14 15 17 16 16 12 6 4 4 6 9 9 11 8 5 5 2 nan nan nan nan nan nan nan nan nan nan nan nan nan nan nan nan nan nan nan nan nan nan nan nan nan nan nan nan nan nan nan nan nan nan nan nan nan nan nan nan
2 2 2 5 5 4 3 5 5 5 4 2 2 2 2 0 nan nan 0 0 0 nan nan nan nan 0 1 6 15 15 18 19 18 18 14 8 6 6 7 10 10 11 10 6 6 3 0 nan nan nan nan nan nan nan nan nan nan nan nan nan nan nan nan nan nan nan nan nan nan nan nan nan nan nan nan nan nan nan nan nan nan nan nan nan nan nan
2 2 2 4 4 5 3 2 1 1 1 1 1 1 1 nan 0 0 1 1 1 0 0 0 0 0 0 0 13 13 15 20 18 18 14 10 8 8 8 10 10 12 9 7 7 3 0 nan nan nan nan nan nan nan nan nan nan nan nan nan nan nan nan nan nan nan nan nan nan nan nan nan nan nan nan nan nan nan nan nan nan nan nan nan nan nan
1 2 3 3 3 1 2 0 0 0 2 0 nan nan nan 0 1 1 1 1 1 1 0 0 0 0 0 1 11 11 13 16 17 17 16 13 12 12 12 14 14 12 10 7 7 3 0 nan nan nan nan nan nan nan nan nan nan nan nan nan nan nan nan nan nan nan nan nan nan nan nan nan nan nan nan nan nan nan nan nan nan nan nan nan nan nan
1 2 4 3 3 1 2 1 1 1 0 0 0 0 0 1 1 1 1 1 1 1 0 0 0 0 0 0 9 9 12 13 13 13 14 14 15 15 15 15 15 15 12 8 8 3 0 nan nan nan nan nan nan nan nan nan nan nan nan nan nan nan nan nan nan nan nan nan nan nan nan nan nan nan nan nan nan nan nan nan nan nan nan nan nan nan
1 2 4 2 2 1 2 2 2 2 1 0 1 1 1 1 2 2 1 1 1 1 1 1 1 0 nan nan 0 0 3 12 15 15 14 14 19 19 19 21 21 18 12 8 8 2 nan nan nan nan nan nan nan nan nan nan nan nan nan nan nan nan nan nan nan nan nan nan nan nan nan nan nan nan nan nan nan nan nan nan nan nan nan nan nan nan
1 2 3 1 1 1 3 3 6 6 4 2 1 1 1 2 2 2 2 1 1 1 1 1 1 0 nan nan nan nan nan 3 7 7 7 16 16 16 22 24 24 17 9 5 5 1 nan nan nan nan nan nan nan nan nan nan nan nan nan nan nan nan nan nan nan nan nan nan nan nan nan nan nan nan nan nan nan nan nan nan nan nan nan nan nan nan
0 1 2 2 2 2 3 3 1 1 0 4 3 3 2 1 1 1 1 1 1 2 0 1 1 1 0 nan nan nan nan nan nan nan nan nan 6 6 4 3 3 10 3 1 1 0 nan nan nan nan nan nan nan nan nan nan nan nan nan nan nan nan nan nan nan nan nan nan nan nan nan nan nan nan nan nan nan nan nan nan nan nan nan nan nan nan
1 1 1 2 2 2 1 0 nan nan 0 0 1 1 2 1 0 0 1 1 1 2 nan nan nan nan 1 0 nan nan nan nan nan nan nan nan nan nan nan nan nan nan nan nan nan nan nan nan nan nan nan nan nan nan nan nan nan nan nan nan nan nan nan nan nan nan nan nan nan nan nan nan nan nan nan nan nan nan nan nan nan nan nan nan nan nan
1 1 1 1 1 0 nan 0 1 1 1 1 1 1 1 2 0 0 0 1 1 1 0 nan nan nan nan nan nan nan nan nan nan nan nan nan nan nan nan nan nan nan nan nan nan nan nan nan nan nan nan nan nan nan nan nan nan nan nan nan nan nan nan nan nan nan nan nan nan nan nan nan nan nan nan nan nan nan nan nan nan nan nan nan nan nan
2 2 1 1 1 1 0 1 2 2 1 2 1 1 2 2 1 1 0 0 0 1 0 0 0 nan nan nan nan nan nan nan nan nan nan nan nan nan nan nan nan nan nan nan nan nan nan nan nan nan nan nan nan nan nan nan nan nan nan nan nan nan nan nan nan nan nan nan nan nan nan nan 0 0 0 nan nan nan nan nan nan nan nan nan nan nan
0 1 1 1 1 2 1 1 1 1 2 2 1 1 2 1 nan nan nan 0 0 0 nan 0 0 0 nan nan nan nan nan nan nan nan nan nan nan nan nan nan nan nan nan nan nan nan nan nan nan nan nan nan nan nan nan nan nan nan nan nan nan nan nan nan nan nan nan nan nan nan nan nan 0 0 0 0 nan nan nan nan nan nan nan nan nan nan
0 0 1 1 1 2 2 0 0 0 1 2 4 4 nan nan nan nan nan 0 0 nan nan 0 0 0 nan nan nan nan nan nan nan nan nan nan nan nan nan nan nan nan nan nan nan nan nan nan nan nan nan nan nan nan nan nan nan nan nan nan nan nan nan nan nan nan nan nan nan nan nan nan 0 0 0 0 nan nan nan nan nan nan nan nan nan nan
0 0 1 1 1 2 1 1 0 0 1 2 nan nan nan nan nan nan nan 0 0 nan 1 2 2 2 0 nan nan nan nan nan nan nan nan nan nan nan nan nan nan nan nan nan nan nan nan nan nan nan nan nan nan nan nan nan nan nan nan nan nan nan nan nan nan nan nan nan nan nan 0 0 0 0 0 0 0 0 nan nan nan nan nan nan nan nan
1 0 0 1 1 0 0 0 0 0 nan nan nan nan nan nan nan nan nan 0 0 0 2 2 2 2 1 nan nan nan nan nan nan nan nan nan nan nan nan nan nan nan nan nan nan nan nan nan nan nan nan nan nan nan nan nan nan nan nan nan nan nan 0 nan nan 0 0 nan nan nan 0 0 0 0 0 0 0 0 nan nan nan nan nan nan nan nan
2 1 0 nan nan nan 0 0 nan nan nan nan nan nan nan nan nan nan 1 1 1 1 3 4 4 1 nan nan nan nan nan nan nan nan nan nan nan nan nan nan nan nan nan nan nan nan nan nan nan nan nan nan nan nan nan nan nan nan nan 0 0 0 0 0 0 0 nan nan nan nan 0 0 0 0 0 0 nan nan nan nan nan nan nan nan nan nan
1 1 1 0 0 1 0 nan nan nan nan nan nan nan nan nan nan nan 1 1 1 2 4 4 4 0 nan nan nan nan nan nan nan nan nan nan nan nan nan nan nan nan nan nan nan nan nan nan nan nan nan nan nan nan nan nan nan nan nan 0 0 1 0 0 0 0 nan nan nan nan 0 0 0 0 nan 0 nan nan nan nan nan nan nan nan nan nan
1 1 1 2 2 1 nan nan nan nan nan nan nan nan nan nan nan nan 0 0 0 2 2 1 1 nan nan nan nan nan nan nan nan nan nan nan nan nan nan nan nan nan nan nan nan nan nan nan nan nan nan nan nan nan nan nan nan nan nan 0 0 1 1 0 0 nan nan nan nan nan 0 0 0 0 nan nan nan nan nan 0 0 0 0 nan nan nan
2 3 5 4 4 nan nan nan nan nan nan nan nan nan nan nan nan nan 0 0 0 0 nan nan nan nan nan nan nan nan nan nan nan nan nan nan nan nan nan nan nan nan nan nan nan nan nan nan nan nan nan nan nan nan nan nan nan nan nan 0 0 1 1 0 0 nan nan nan nan nan 0 0 nan nan nan nan nan nan nan nan nan 0 1 1 1 0
4 5 5 2 2 0 0 nan nan nan nan nan nan nan 0 0 1 1 1 nan nan nan 0 nan nan nan nan nan nan nan nan nan nan nan nan nan nan nan nan nan nan nan nan nan nan nan nan nan nan nan nan nan nan nan nan nan nan nan nan nan nan 0 1 nan nan nan nan nan 0 0 0 nan nan nan nan nan nan nan nan nan nan nan 1 2 2 3
6 3 2 nan nan nan nan nan nan nan nan nan nan nan 0 1 1 1 0 nan nan 0 nan nan nan nan nan nan nan nan nan nan nan nan nan nan nan nan nan nan nan nan nan nan nan nan nan nan nan nan nan nan nan nan nan nan nan nan nan nan nan 1 1 nan nan nan nan nan nan nan nan nan nan nan nan nan nan nan nan nan nan nan 0 2 2 2
5 4 2 nan nan nan nan nan nan nan nan 0 2 2 0 nan 0 0 0 nan nan nan nan nan nan nan nan nan nan nan nan nan nan nan nan nan nan nan nan nan nan nan nan nan nan nan nan nan nan nan nan nan nan nan nan nan nan nan nan nan nan 1 1 nan nan nan nan 0 nan nan nan nan nan nan nan nan nan nan nan nan nan nan 0 1 1 2
0 0 nan nan nan nan nan nan nan nan 0 nan nan nan nan nan nan nan nan nan nan nan nan nan nan nan nan nan nan nan nan nan nan nan nan nan nan nan nan nan nan nan nan nan nan nan nan nan nan nan nan nan nan nan nan nan nan nan nan nan nan 1 1 0 0 0 0 0 nan nan nan nan nan nan nan nan nan nan nan nan nan nan 0 0 0 1
nan nan nan nan nan nan nan nan nan nan nan nan nan nan nan nan nan nan nan nan nan nan nan nan nan nan nan nan nan nan nan nan nan nan nan nan nan nan nan nan nan nan nan nan nan nan nan nan nan nan nan nan nan nan nan nan nan nan nan 0 0 2 3 2 2 2 1 1 0 0 0 nan nan nan nan nan nan nan nan nan nan nan nan nan nan nan
nan nan nan nan nan nan nan nan 0 0 0 nan nan nan nan nan nan nan nan nan nan nan nan nan nan nan nan nan nan nan nan nan nan nan nan nan nan nan nan nan nan nan nan nan nan nan nan nan nan nan nan nan nan nan nan nan nan nan nan 1 1 3 4 3 3 3 2 2 1 1 1 1 1 1 0 nan nan nan nan nan nan nan nan nan nan nan
nan nan nan nan nan nan 0 0 1 1 1 0 nan nan nan nan nan nan nan nan nan nan nan nan nan nan nan nan nan nan nan nan nan nan nan nan nan nan nan nan nan nan nan nan nan nan nan nan nan nan nan nan nan nan nan nan nan nan nan 3 3 5 5 4 4 3 2 1 1 1 1 1 1 1 1 1 1 1 0 nan nan nan nan nan nan 1
1 0 0 0 0 1 1 3 3 3 3 2 0 0 nan nan nan nan nan nan nan nan nan nan nan nan nan nan nan nan nan nan nan nan nan nan nan nan nan nan nan nan nan nan nan nan nan nan nan nan nan nan nan nan nan nan nan nan 1 5 5 6 5 4 4 2 1 1 1 1 1 1 1 1 1 1 2 2 1 0 0 nan nan nan nan nan
1 1 1 2 2 2 2 3 5 5 5 3 1 1 nan nan nan nan nan nan nan nan nan nan nan nan nan nan nan nan nan nan nan nan nan nan nan nan nan nan nan nan nan nan nan nan nan nan nan nan nan nan nan nan nan nan nan nan 6 7 7 6 3 2 2 1 0 0 0 0 0 1 1 1 1 1 1 1 1 1 1 0 nan nan nan nan
1 1 1 1 1 1 2 3 4 4 5 3 nan nan nan nan nan nan nan nan nan nan nan nan nan nan nan nan nan nan nan nan nan nan nan nan nan nan nan nan nan nan nan nan nan nan nan nan nan nan nan nan nan nan nan nan nan nan 1 6 6 4 0 nan nan nan nan nan nan nan nan nan nan nan nan nan 0 0 1 0 0 1 nan nan nan nan
nan nan nan nan nan nan nan nan nan nan nan nan nan nan nan nan nan nan nan nan nan nan nan nan nan nan nan nan nan nan nan nan nan nan nan nan nan nan nan nan nan nan nan nan nan nan nan nan nan nan nan nan nan nan nan nan nan nan nan nan nan nan nan nan nan nan nan nan nan nan nan nan nan nan nan nan nan nan nan nan nan nan nan nan nan nan
nan nan nan nan nan nan nan nan nan nan nan nan nan nan nan nan nan nan nan nan nan nan nan nan nan nan nan nan nan nan nan nan nan nan nan nan nan nan nan nan nan nan nan nan nan nan nan nan nan nan nan nan nan nan nan nan nan nan nan nan nan nan nan nan nan nan nan nan nan nan nan nan nan nan nan nan nan nan nan nan nan nan nan nan nan nan
nan nan nan nan nan nan nan nan nan nan nan nan nan nan nan nan nan nan nan nan nan nan nan nan nan nan nan nan nan nan nan nan nan nan nan nan nan nan nan nan nan nan nan nan nan nan nan nan nan nan nan nan nan nan nan nan nan nan nan nan nan nan nan nan nan nan nan nan nan nan nan nan nan nan nan nan nan nan nan nan nan nan nan nan nan nan
nan nan nan nan nan nan nan nan nan nan nan nan nan nan nan nan nan nan nan nan nan nan nan nan nan nan nan nan nan nan nan nan nan nan nan nan nan nan nan nan nan nan nan nan nan nan nan nan nan nan nan nan nan nan nan nan nan nan nan nan nan nan nan nan nan nan nan nan nan nan nan nan nan nan nan nan nan nan nan nan nan nan nan nan nan nan
nan nan nan nan nan nan nan nan nan nan nan nan nan nan nan nan nan nan nan nan nan nan nan nan nan nan nan nan nan nan nan nan nan nan nan nan nan nan nan nan nan nan nan nan nan nan nan nan nan nan nan nan nan nan nan nan nan nan nan nan nan nan nan nan nan nan nan nan nan nan nan nan nan nan nan nan nan nan nan nan nan nan nan nan nan 1
nan nan nan nan nan nan nan nan nan nan nan nan nan nan nan nan nan nan nan nan nan nan nan nan nan nan nan nan nan nan nan nan nan nan nan nan nan nan nan nan nan nan nan nan nan nan nan nan nan nan nan nan nan nan nan nan nan nan nan nan nan nan nan nan nan nan nan nan nan nan nan nan nan nan nan nan nan nan nan nan nan nan nan nan nan 1
nan nan nan nan nan nan nan nan nan nan nan nan nan nan nan nan nan nan nan nan nan nan nan nan nan nan nan nan nan nan nan nan nan nan nan nan nan nan nan nan nan nan nan nan nan nan nan nan nan nan nan nan nan nan nan nan nan nan nan nan nan nan nan nan nan nan nan nan nan nan nan nan nan nan nan nan nan nan nan nan nan nan nan nan nan 0
nan nan nan nan nan nan nan nan nan nan nan nan nan nan nan nan nan nan nan nan nan nan nan nan nan nan nan nan nan nan nan nan nan nan nan nan nan nan nan nan nan nan nan nan nan nan nan nan nan nan nan nan nan nan nan nan nan nan nan nan nan nan nan nan nan nan nan nan nan nan nan nan nan nan nan nan nan nan nan nan nan nan nan nan nan nan
nan nan nan nan nan nan nan nan nan nan nan nan nan nan nan nan nan nan nan nan nan nan nan nan nan nan nan nan nan nan nan nan nan nan nan nan nan nan nan nan nan nan nan nan nan nan nan nan nan nan nan nan nan nan nan nan nan nan nan nan nan nan nan nan nan nan nan nan nan nan nan nan nan nan nan nan nan nan nan nan nan nan nan nan nan nan
nan nan nan nan nan nan nan nan nan nan nan nan nan nan nan nan nan nan nan nan nan nan nan nan nan nan nan nan nan nan nan nan nan nan 0 nan nan nan nan nan nan nan nan nan nan nan nan nan nan nan nan nan nan nan nan nan nan nan nan nan nan nan nan nan nan nan nan nan nan nan nan nan nan nan nan nan nan nan nan nan nan nan nan nan nan nan
nan nan nan nan nan nan nan nan nan nan nan nan nan nan nan nan nan nan nan nan nan nan nan nan nan nan nan nan nan nan nan nan nan nan 0 0 nan nan nan nan nan nan nan nan nan nan nan nan nan nan nan nan nan nan nan nan nan nan nan nan nan nan nan nan nan nan nan nan nan nan nan nan nan nan nan nan nan nan nan nan nan nan nan nan nan nan
nan nan nan nan nan nan nan nan nan nan nan nan nan nan nan nan nan nan nan nan nan nan nan nan nan nan nan nan nan nan nan nan nan nan nan nan nan nan nan nan nan nan nan nan nan nan nan nan nan nan nan nan nan nan nan nan nan nan nan nan nan nan nan nan nan nan nan nan nan nan nan nan nan nan nan nan nan nan nan nan nan nan nan nan nan nan
nan nan nan nan nan nan nan nan nan nan nan nan nan nan nan nan nan nan nan nan nan nan nan nan nan nan nan nan nan nan nan nan nan nan nan nan nan nan nan nan nan nan nan nan nan nan nan nan nan nan nan nan nan nan nan nan nan nan nan nan nan nan nan nan nan nan nan nan nan nan nan nan nan nan nan nan nan nan nan nan nan nan nan nan nan nan
nan nan nan nan nan nan nan nan nan nan nan nan nan nan nan nan nan nan nan nan nan nan nan nan nan nan nan nan nan nan nan nan nan nan nan nan nan nan nan nan nan nan nan nan nan nan nan nan nan nan nan nan nan nan nan nan nan nan nan nan nan nan nan nan nan nan nan nan nan nan nan nan nan nan nan nan nan nan nan nan nan nan nan nan nan nan
nan nan nan nan nan nan nan nan nan nan nan nan nan nan nan nan nan nan nan nan nan nan nan nan nan nan nan nan nan nan nan nan nan nan nan nan nan nan nan nan nan nan nan nan nan nan nan nan nan nan nan nan nan nan nan nan nan nan nan nan nan nan nan nan nan nan nan nan nan nan nan nan nan nan nan nan nan nan nan nan nan nan nan nan nan nan
nan nan nan nan nan nan nan nan nan nan nan nan nan nan nan nan nan nan nan nan nan nan nan nan nan nan nan nan nan nan nan nan nan nan nan nan nan nan nan nan nan nan nan nan nan nan nan nan nan nan nan nan nan nan nan nan nan nan nan nan nan nan nan nan nan nan nan nan nan nan nan nan nan nan nan nan nan nan nan nan nan nan nan nan nan nan
nan nan nan nan nan nan nan nan nan nan nan nan nan nan nan nan nan nan nan nan nan nan nan nan nan nan nan nan nan nan nan nan nan nan nan nan nan nan nan nan nan nan nan nan nan nan nan nan nan nan nan nan nan nan nan nan nan nan nan nan nan nan nan nan nan nan nan nan nan nan 0 nan nan nan nan nan nan nan nan nan nan nan nan nan nan nan
nan nan nan nan nan nan nan nan nan nan nan nan nan nan nan nan nan nan nan nan nan nan nan nan nan nan nan nan nan nan nan nan nan nan nan nan nan nan nan nan nan nan nan nan nan nan nan nan nan nan nan nan nan nan nan nan nan nan nan nan nan nan nan nan nan nan nan nan nan nan nan nan nan nan nan nan nan nan nan nan nan nan nan nan nan nan
nan nan nan nan nan nan nan nan nan nan nan nan nan nan nan nan nan nan nan nan nan nan nan nan nan nan nan nan nan nan nan nan nan nan nan nan nan nan nan nan nan nan nan nan nan nan nan nan nan nan nan nan nan nan nan nan nan nan nan nan nan nan nan nan nan nan nan nan nan nan 0 nan nan nan nan nan nan nan nan nan nan nan nan nan nan nan
nan nan nan nan nan nan nan nan nan nan nan nan nan nan nan nan nan nan nan nan nan nan nan nan nan nan nan nan nan nan nan nan nan nan nan nan nan nan nan nan nan nan nan nan nan nan nan nan nan nan nan nan nan nan nan nan nan nan nan nan nan nan nan nan nan nan nan nan nan nan 0 0 nan nan nan nan nan nan nan nan nan nan nan nan nan nan
CIN
-0 -0 -0 -0 -0 -0 -0 -0 -0 -0 -0 -0 -0 -0 -0 -0 -0 -0 -0 -0 -0 -0 -0 -0 -0 -0 -0 -0 -0 -0 -0 -0 -0 -0 -0 -0 -0 -0 -0 -0 -0 -0 -0 -0 -0 -0 nan nan nan nan nan nan nan nan nan nan nan -0 -0 -0 -0 -0 -0 -0 -0 -0 -0 -0 -0 -0 nan nan nan nan nan nan nan nan nan -0 -0 nan nan nan nan nan
-0 -0 -0 -0 -0 -0 -0 -0 -0 -0 -0 -0 -0 -0 -0 -0 -0 -0 -0 -0 -0 nan nan nan nan -0 -0 -0 -0 -0 -0 -0 -0 -0 -0 -0 -0 -0 -0 -0 -0 -0 -0 -0 -0 -0 nan nan nan nan nan nan nan nan nan nan nan nan nan nan nan nan -0 -0 -0 -0 -0 nan nan nan nan nan nan nan nan nan nan nan nan -0 -0 nan nan nan nan nan
-0 -0 -0 -0 -0 -0 -0 -0 -0 -0 -0 -0 -0 -0 -0 -0 -0 -0 -0 -0 -0 nan nan nan nan nan -0 -0 -0 -0 -0 -0 -0 -0 -0 -0 -0 -0 -0 -0 -0 -0 -0 -0 -0 -0 nan nan nan nan nan nan nan nan nan nan nan nan nan nan nan nan nan nan nan nan nan nan nan nan nan nan nan nan nan nan nan nan nan nan nan nan nan nan nan nan
-0 -0 -0 -0 -0 -0 -0 -0 -0 -0 -0 -0 -0 -0 -0 -0 nan nan -0 -0 -0 nan nan nan nan -0 -0 -0 -0 -0 -0 -0 -0 -0 -0 -0 -0 -0 -0 -0 -0 -0 -0 -0 -0 -0 -1 nan nan nan nan nan nan nan nan nan nan nan nan nan nan nan nan nan nan nan nan nan nan nan nan nan nan nan nan nan nan nan nan nan nan nan nan nan nan nan
-0 -0 -0 -0 -0 -0 -0 -0 -0 -0 -0 -0 -0 -0 -0 nan -0 -0 -0 -0 -0 -0 -0 -0 -0 -0 -0 -0 -0 -0 -0 -0 -0 -0 -0 -0 -0 -0 -0 -0 -0 -0 -0 -0 -0 -0 -0 nan nan nan nan nan nan nan nan nan nan nan nan nan nan nan nan nan nan nan nan nan nan nan nan nan nan nan nan nan nan nan nan nan nan nan nan nan nan nan
-0 -0 -0 -0 -0 -0 -0 -0 -0 -0 -0 -0 nan nan nan -0 -0 -0 -0 -0 -0 -0 -0 -0 -0 -0 -0 -0 -0 -0 -0 -0 -0 -0 -0 -0 -0 -0 -0 -0 -0 -0 -0 -0 -0 -0 -0 nan nan nan nan nan nan nan nan nan nan nan nan nan nan nan nan nan nan nan nan nan nan nan nan nan nan nan nan nan nan nan nan nan nan nan nan nan nan nan
-0 -0 -0 -0 -0 -0 -0 -0 -0 -0 -0 -0 -0 -0 -0 -0 -0 -0 -0 -0 -0 -0 -0 -0 -0 -0 -0 -0 -0 -0 -0 -0 -0 -0 -0 -0 -0 -0 -0 -0 -0 -0 -0 -0 -0 -0 -0 nan nan nan nan nan nan nan nan nan nan nan nan nan nan nan nan nan nan nan nan nan nan nan nan nan nan nan nan nan nan nan nan nan nan nan nan nan nan nan
-0 -0 -0 -0 -0 -0 -0 -0 -0 -0 -0 -0 -0 -0 -0 -0 -0 -0 -0 -0 -0 -0 -0 -0 -0 -0 nan nan -0 -0 -0 -0 -0 -0 -0 -0 -0 -0 -0 -0 -0 -0 -0 -0 -0 -0 nan nan nan nan nan nan nan nan nan nan nan nan nan nan nan nan nan nan nan nan nan nan nan nan nan nan nan nan nan nan nan nan nan nan nan nan nan nan nan nan
-0 -0 -0 -0 -0 -0 -0 -0 -0 -0 -0 -0 -0 -0 -0 -0 -0 -0 -0 -0 -0 -0 -0 -0 -0 -0 nan nan nan nan nan -0 -0 -0 -0 -0 -0 -0 -0 -0 -0 -0 -0 -0 -0 -0 nan nan nan nan nan nan nan nan nan nan nan nan nan nan nan nan nan nan nan nan nan nan nan nan nan nan nan nan nan nan nan nan nan nan nan nan nan nan nan nan
-0 -0 -0 -0 -0 -0 -0 -0 -0 -0 -0 -0 -0 -0 -0 -0 -0 -0 -0 -0 -0 -0 -0 -0 -0 -0 -0 nan nan nan nan nan nan nan nan nan -0 -0 -0 -0 -0 -0 -0 -0 -0 -0 nan nan nan nan nan nan nan nan nan nan nan nan nan nan nan nan nan nan nan nan nan nan nan nan nan nan nan nan nan nan nan nan nan nan nan nan nan nan nan nan
-0 -0 -0 -0 -0 -0 -0 -0 nan nan -0 -0 -0 -0 -0 -0 -0 -0 -0 -0 -0 -0 nan nan nan nan -0 -0 nan nan nan nan nan nan nan nan nan nan nan nan nan nan nan nan nan nan nan nan nan nan nan nan nan nan nan nan nan nan nan nan nan nan nan nan nan nan nan nan nan nan nan nan nan nan nan nan nan nan nan nan nan nan nan nan nan nan
-0 -0 -0 -0 -0 -0 nan -0 -0 -0 -0 -0 -0 -0 -0 -0 -0 -0 -0 -0 -0 -0 -0 nan nan nan nan nan nan nan nan nan nan nan nan nan nan nan nan nan nan nan nan nan nan nan nan nan nan nan nan nan nan nan nan nan nan nan nan nan nan nan nan nan nan nan nan nan nan nan nan nan nan nan nan nan nan nan nan nan nan nan nan nan nan nan
-0 -0 -0 -0 -0 -0 -0 -0 -0 -0 -0 -0 -0 -0 -0 -0 -0 -0 -0 -0 -0 -0 -0 -0 -0 nan nan nan nan nan nan nan nan nan nan nan nan nan nan nan nan nan nan nan nan nan nan nan nan nan nan nan nan nan nan nan nan nan nan nan nan nan nan nan nan nan nan nan nan nan nan nan -0 -0 -0 nan nan nan nan nan nan nan nan nan nan nan
-0 -0 -0 -0 -0 -0 -0 -0 -0 -0 -0 -0 -0 -0 -0 -0 nan nan nan -0 -0 -0 nan -0 -0 -0 nan nan nan nan nan nan nan nan nan nan nan nan nan nan nan nan nan nan nan nan nan nan nan nan nan nan nan nan nan nan nan nan nan nan nan nan nan nan nan nan nan nan nan nan nan nan -0 -0 -0 -0 nan nan nan nan nan nan nan nan nan nan
-0 -0 -0 -0 -0 -0 -0 -0 -0 -0 -0 -0 -0 -0 nan nan nan nan nan -0 -0 nan nan -0 -0 -0 nan nan nan nan nan nan nan nan nan nan nan nan nan nan nan nan nan nan nan nan nan nan nan nan nan nan nan nan nan nan nan nan nan nan nan nan nan nan nan nan nan nan nan nan nan nan -0 -0 -0 -0 nan nan nan nan nan nan nan nan nan nan
-0 -0 -0 -0 -0 -0 -0 -0 -0 -0 -0 -0 nan nan nan nan nan nan nan -0 -0 nan -0 -0 -0 -0 -0 nan nan nan nan nan nan nan nan nan nan nan nan nan nan nan nan nan nan nan nan nan nan nan nan nan nan nan nan nan nan nan nan nan nan nan nan nan nan nan nan nan nan nan -0 -0 -0 -0 -0 -0 -0 -0 nan nan nan nan nan nan nan nan
-0 -0 -0 -0 -0 -0 -0 -0 -0 -0 nan nan nan nan nan nan nan nan nan -0 -0 -0 -0 -0 -0 -0 -0 nan nan nan nan nan nan nan nan nan nan nan nan nan nan nan nan nan nan nan nan nan nan nan nan nan nan nan nan nan nan nan nan nan nan nan -0 nan nan -0 -0 nan nan nan -0 -0 -0 -0 -0 -0 -0 -0 nan nan nan nan nan nan nan nan
-0 -0 -0 nan nan nan -0 -0 nan nan nan nan nan nan nan nan nan nan -0 -0 -0 -0 -0 -0 -0 -0 nan nan nan nan nan nan nan nan nan nan nan nan nan nan nan nan nan nan nan nan nan nan nan nan nan nan nan nan nan nan nan nan nan -0 -0 -0 -0 -0 -0 -0 nan nan nan nan -0 -0 -0 -0 -0 -0 nan nan nan nan nan nan nan nan nan nan
-0 -0 -0 -0 -0 -0 -0 nan nan nan nan nan nan nan nan nan nan nan -0 -1 -1 -0 -0 -0 -0 -0 nan nan nan nan nan nan nan nan nan nan nan nan nan nan nan nan nan nan nan nan nan nan nan nan nan nan nan nan nan nan nan nan nan -0 -0 -0 -0 -0 -0 -0 nan nan nan nan -0 -0 -0 -0 nan -0 nan nan nan nan nan nan nan nan nan nan
-0 -0 -0 -0 -0 -0 nan nan nan nan nan nan nan nan nan nan nan nan -0 -1 -1 -0 -0 -0 -0 nan nan nan nan nan nan nan nan nan nan nan nan nan nan nan nan nan nan nan nan nan nan nan nan nan nan nan nan nan nan nan nan nan nan -0 -0 -0 -0 -0 -0 nan nan nan nan nan -0 -0 -0 -0 nan nan nan nan nan -0 -0 -0 -0 nan nan nan
-0 -0 -0 -0 -0 nan nan nan nan nan nan nan nan nan nan nan nan nan -1 -1 -1 -1 nan nan nan nan nan nan nan nan nan nan nan nan nan nan nan nan nan nan nan nan nan nan nan nan nan nan nan nan nan nan nan nan nan nan nan nan nan -0 -0 -0 -0 -0 -0 nan nan nan nan nan -0 -0 nan nan nan nan nan nan nan nan nan -0 -0 -0 -0 -0
-0 -0 -0 -0 -0 -0 -0 nan nan nan nan nan nan nan -0 -1 -0 -0 -1 nan nan nan -1 nan nan nan nan nan nan nan nan nan nan nan nan nan nan nan nan nan nan nan nan nan nan nan nan nan nan nan nan nan nan nan nan nan nan nan nan nan nan -0 -0 nan nan nan nan nan -0 -0 -0 nan nan nan nan nan nan nan nan nan nan nan -0 -0 -0 -0
-0 -0 -0 nan nan nan nan nan nan nan nan nan nan nan -0 -0 -0 -0 -0 nan nan -0 nan nan nan nan nan nan nan nan nan nan nan nan nan nan nan nan nan nan nan nan nan nan nan nan nan nan nan nan nan nan nan nan nan nan nan nan nan nan nan -0 -0 nan nan nan nan nan nan nan nan nan nan nan nan nan nan nan nan nan nan nan -0 -0 -0 -0
-0 -0 -0 nan nan nan nan nan nan nan nan -0 -0 -0 -2 nan -0 -0 -0 nan nan nan nan nan nan nan nan nan nan nan nan nan nan nan nan nan nan nan nan nan nan nan nan nan nan nan nan nan nan nan nan nan nan nan nan nan nan nan nan nan nan -0 -0 nan nan nan nan -0 nan nan nan nan nan nan nan nan nan nan nan nan nan nan -0 -0 -0 -0
-0 -0 nan nan nan nan nan nan nan nan -0 nan nan nan nan nan nan nan nan nan nan nan nan nan nan nan nan nan nan nan nan nan nan nan nan nan nan nan nan nan nan nan nan nan nan nan nan nan nan nan nan nan nan nan nan nan nan nan nan nan nan -0 -0 -0 -0 -0 -0 -0 nan nan nan nan nan nan nan nan nan nan nan nan nan nan -0 -0 -0 -0
nan nan nan nan nan nan nan nan nan nan nan nan nan nan nan nan nan nan nan nan nan nan nan nan nan nan nan nan nan nan nan nan nan nan nan nan nan nan nan nan nan nan nan nan nan nan nan nan nan nan nan nan nan nan nan nan nan nan nan -0 -0 -0 -0 -0 -0 -0 -0 -0 -0 -0 -0 nan nan nan nan nan nan nan nan nan nan nan nan nan nan nan
nan nan nan nan nan nan nan nan -0 -0 -0 nan nan nan nan nan nan nan nan nan nan nan nan nan nan nan nan nan nan nan nan nan nan nan nan nan nan nan nan nan nan nan nan nan nan nan nan nan nan nan nan nan nan nan nan nan nan nan nan -0 -0 -0 -0 -0 -0 -0 -0 -0 -0 -0 -0 -0 -0 -0 -0 nan nan nan nan nan nan nan nan nan nan nan
nan nan nan nan nan nan -0 -0 -0 -0 -0 -0 nan nan nan nan nan nan nan nan nan nan nan nan nan nan nan nan nan nan nan nan nan nan nan nan nan nan nan nan nan nan nan nan nan nan nan nan nan nan nan nan nan nan nan nan nan nan nan -0 -0 -0 -0 -0 -0 -0 -0 -0 -0 -0 -0 -0 -0 -0 -0 -0 -0 -0 -0 nan nan nan nan nan nan -0
-0 -0 -0 -0 -0 -0 -0 -0 -0 -0 -0 -0 -0 -0 nan nan nan nan nan nan nan nan nan nan nan nan nan nan nan nan nan nan nan nan nan nan nan nan nan nan nan nan nan nan nan nan nan nan nan nan nan nan nan nan nan nan nan nan -0 -0 -0 -0 -0 -0 -0 -0 -0 -0 -0 -0 -0 -0 -0 -0 -0 -0 -0 -0 -0 -0 -0 nan nan nan nan nan
-0 -0 -0 -0 -0 -0 -0 -0 -0 -0 -0 -0 -0 -0 nan nan nan nan nan nan nan nan nan nan nan nan nan nan nan nan nan nan nan nan nan nan nan nan nan nan nan nan nan nan nan nan nan nan nan nan nan nan nan nan nan nan nan nan -0 -0 -0 -0 -0 -0 -0 -0 -0 -0 -0 -0 -0 -0 -0 -0 -0 -0 -0 -0 -0 -0 -0 -0 nan nan nan nan
-0 -0 -0 -0 -0 -0 -0 -0 -0 -0 -0 -0 nan nan nan nan nan nan nan nan nan nan nan nan nan nan nan nan nan nan nan nan nan nan nan nan nan nan nan nan nan nan nan nan nan nan nan nan nan nan nan nan nan nan nan nan nan nan -0 -0 -0 -0 -0 nan nan nan nan nan nan nan nan nan nan nan nan nan -0 -0 -0 -0 -0 -0 nan nan nan nan
nan nan nan nan nan nan nan nan nan nan nan nan nan nan nan nan nan nan nan nan nan nan nan nan nan nan nan nan nan nan nan nan nan nan nan nan nan nan nan nan nan nan nan nan nan nan nan nan nan nan nan nan nan nan nan nan nan nan nan nan nan nan nan nan nan nan nan nan nan nan nan nan nan nan nan nan nan nan nan nan nan nan nan nan nan nan
nan nan nan nan nan nan nan nan nan nan nan nan nan nan nan nan nan nan nan nan nan nan nan nan nan nan nan nan nan nan nan nan nan nan nan nan nan nan nan nan nan nan nan nan nan nan nan nan nan nan nan nan nan nan nan nan nan nan nan nan nan nan nan nan nan nan nan nan nan nan nan nan nan nan nan nan nan nan nan nan nan nan nan nan nan nan
nan nan nan nan nan nan nan nan nan nan nan nan nan nan nan nan nan nan nan nan nan nan nan nan nan nan nan nan nan nan nan nan nan nan nan nan nan nan nan nan nan nan nan nan nan nan nan nan nan nan nan nan nan nan nan nan nan nan nan nan nan nan nan nan nan nan nan nan nan nan nan nan nan nan nan nan nan nan nan nan nan nan nan nan nan nan
nan nan nan nan nan nan nan nan nan nan nan nan nan nan nan nan nan nan nan nan nan nan nan nan nan nan nan nan nan nan nan nan nan nan nan nan nan nan nan nan nan nan nan nan nan nan nan nan nan nan nan nan nan nan nan nan nan nan nan nan nan nan nan nan nan nan nan nan nan nan nan nan nan nan nan nan nan nan nan nan nan nan nan nan nan nan
nan nan nan nan nan nan nan nan nan nan nan nan nan nan nan nan nan nan nan nan nan nan nan nan nan nan nan nan nan nan nan nan nan nan nan nan nan nan nan nan nan nan nan nan nan nan nan nan nan nan nan nan nan nan nan nan nan nan nan nan nan nan nan nan nan nan nan nan nan nan nan nan nan nan nan nan nan nan nan nan nan nan nan nan nan -0
nan nan nan nan nan nan nan nan nan nan nan nan nan nan nan nan nan nan nan nan nan nan nan nan nan nan nan nan nan nan nan nan nan nan nan nan nan nan nan nan nan nan nan nan nan nan nan nan nan nan nan nan nan nan nan nan nan nan nan nan nan nan nan nan nan nan nan nan nan nan nan nan nan nan nan nan nan nan nan nan nan nan nan nan nan -0
nan nan nan nan nan nan nan nan nan nan nan nan nan nan nan nan nan nan nan nan nan nan nan nan nan nan nan nan nan nan nan nan nan nan nan nan nan nan nan nan nan nan nan nan nan nan nan nan nan nan nan nan nan nan nan nan nan nan nan nan nan nan nan nan nan nan nan nan nan nan nan nan nan nan nan nan nan nan nan nan nan nan nan nan nan -0
nan nan nan nan nan nan nan nan nan nan nan nan nan nan nan nan nan nan nan nan nan nan nan nan nan nan nan nan nan nan nan nan nan nan nan nan nan nan nan nan nan nan nan nan nan nan nan nan nan nan nan nan nan nan nan nan nan nan nan nan nan nan nan nan nan nan nan nan nan nan nan nan nan nan nan nan nan nan nan nan nan nan nan nan nan nan
nan nan nan nan nan nan nan nan nan nan nan nan nan nan nan nan nan nan nan nan nan nan nan nan nan nan nan nan nan nan nan nan nan nan nan nan nan nan nan nan nan nan nan nan nan nan nan nan nan nan nan nan nan nan nan nan nan nan nan nan nan nan nan nan nan nan nan nan nan nan nan nan nan nan nan nan nan nan nan nan nan nan nan nan nan nan
nan nan nan nan nan nan nan nan nan nan nan nan nan nan nan nan nan nan nan nan nan nan nan nan nan nan nan nan nan nan nan nan nan nan -0 nan nan nan nan nan nan nan nan nan nan nan nan nan nan nan nan nan nan nan nan nan nan nan nan nan nan nan nan nan nan nan nan nan nan nan nan nan nan nan nan nan nan nan nan nan nan nan nan nan nan nan
nan nan nan nan nan nan nan nan nan nan nan nan nan nan nan nan nan nan nan nan nan nan nan nan nan nan nan nan nan nan nan nan nan nan -0 -0 nan nan nan nan nan nan nan nan nan nan nan nan nan nan nan nan nan nan nan nan nan nan nan nan nan nan nan nan nan nan nan nan nan nan nan nan nan nan nan nan nan nan nan nan nan nan nan nan nan nan
nan nan nan nan nan nan nan nan nan nan nan nan nan nan nan nan nan nan nan nan nan nan nan nan nan nan nan nan nan nan nan nan nan nan nan nan nan nan nan nan nan nan nan nan nan nan nan nan nan nan nan nan nan nan nan nan nan nan nan nan nan nan nan nan nan nan nan nan nan nan nan nan nan nan nan nan nan nan nan nan nan nan nan nan nan nan
nan nan nan nan nan nan nan nan nan nan nan nan nan nan nan nan nan nan nan nan nan nan nan nan nan nan nan nan nan nan nan nan nan nan nan nan nan nan nan nan nan nan nan nan nan nan nan nan nan nan nan nan nan nan nan nan nan nan nan nan nan nan nan nan nan nan nan nan nan nan nan nan nan nan nan nan nan nan nan nan nan nan nan nan nan nan
nan nan nan nan nan nan nan nan nan nan nan nan nan nan nan nan nan nan nan nan nan nan nan nan nan nan nan nan nan nan nan nan nan nan nan nan nan nan nan nan nan nan nan nan nan nan nan nan nan nan nan nan nan nan nan nan nan nan nan nan nan nan nan nan nan nan nan nan nan nan nan nan nan nan nan nan nan nan nan nan nan nan nan nan nan nan
nan nan nan nan nan nan nan nan nan nan nan nan nan nan nan nan nan nan nan nan nan nan nan nan nan nan nan nan nan nan nan nan nan nan nan nan nan nan nan nan nan nan nan nan nan nan nan nan nan nan nan nan nan nan nan nan nan nan nan nan nan nan nan nan nan nan nan nan nan nan nan nan nan nan nan nan nan nan nan nan nan nan nan nan nan nan
nan nan nan nan nan nan nan nan nan nan nan nan nan nan nan nan nan nan nan nan nan nan nan nan nan nan nan nan nan nan nan nan nan nan nan nan nan nan nan nan nan nan nan nan nan nan nan nan nan nan nan nan nan nan nan nan nan nan nan nan nan nan nan nan nan nan nan nan nan nan nan nan nan nan nan nan nan nan nan nan nan nan nan nan nan nan
nan nan nan nan nan nan nan nan nan nan nan nan nan nan nan nan nan nan nan nan nan nan nan nan nan nan nan nan nan nan nan nan nan nan nan nan nan nan nan nan nan nan nan nan nan nan nan nan nan nan nan nan nan nan nan nan nan nan nan nan nan nan nan nan nan nan nan nan nan nan -0 nan nan nan nan nan nan nan nan nan nan nan nan nan nan nan
nan nan nan nan nan nan nan nan nan nan nan nan nan nan nan nan nan nan nan nan nan nan nan nan nan nan nan nan nan nan nan nan nan nan nan nan nan nan nan nan nan nan nan nan nan nan nan nan nan nan nan nan nan nan nan nan nan nan nan nan nan nan nan nan nan nan nan nan nan nan nan nan nan nan nan nan nan nan nan nan nan nan nan nan nan nan
nan nan nan nan nan nan nan nan nan nan nan nan nan nan nan nan nan nan nan nan nan nan nan nan nan nan nan nan nan nan nan nan nan nan nan nan nan nan nan nan nan nan nan nan nan nan nan nan nan nan nan nan nan nan nan nan nan nan nan nan nan nan nan nan nan nan nan nan nan nan -0 nan nan nan nan nan nan nan nan nan nan nan nan nan nan nan
nan nan nan nan nan nan nan nan nan nan nan nan nan nan nan nan nan nan nan nan nan nan nan nan nan nan nan nan nan nan nan nan nan nan nan nan nan nan nan nan nan nan nan nan nan nan nan nan nan nan nan nan nan nan nan nan nan nan nan nan nan nan nan nan nan nan nan nan nan nan -0 -0 nan nan nan nan nan nan nan nan nan nan nan nan nan nan
Wind_Speed
1 2 2 4 5 4 5 6 6 5 4 4 4 4 3 3 4 4 5 4 4 4 4 5 5 6 8 10 12 12 12 12 11 11 10 10 10 9 9 9 9 9 9 9 9 9 9 9 9 9 8 8 9 9 9 9 8 8 8 7 7 7 8 8 8 8 8 8 7 7 6 6 5 5 5 5 4 4 4 3 3 3 3 3 3 3
1 2 2 4 5 4 4 6 6 6 5 4 4 4 4 4 4 3 4 4 4 4 3 4 5 6 7 8 10 12 12 11 11 10 10 10 10 10 10 9 9 9 9 9 9 9 9 9 8 8 8 8 8 9 9 9 9 8 8 8 8 8 8 8 8 8 8 7 7 6 6 5 5 5 5 4 4 4 4 3 3 3 4 4 4 4
2 2 2 4 4 4 4 5 6 5 5 5 4 5 5 5 4 3 3 3 3 3 3 3 3 4 5 6 8 10 11 10 10 10 10 10 10 10 10 10 10 9 9 9 9 9 8 8 8 7 7 7 8 8 8 8 8 8 8 8 8 8 8 8 8 8 7 7 7 6 5 5 5 4 4 4 4 4 4 3 3 3 4 4 4 4
3 2 3 3 3 3 3 4 4 4 4 4 5 5 5 5 4 3 3 3 3 3 3 4 3 3 3 3 5 8 9 9 9 9 9 9 10 10 10 10 10 10 9 9 9 8 8 8 7 7 7 7 7 7 7 7 7 7 7 8 8 8 8 8 7 7 7 6 6 5 5 4 4 4 4 4 4 4 4 3 3 3 3 4 4 4
3 3 3 3 2 2 2 3 3 3 4 4 4 4 4 4 3 3 3 3 3 3 3 3 4 3 3 2 3 5 7 8 8 8 8 9 9 10 10 10 10 10 10 9 9 8 8 7 7 6 6 6 6 6 6 6 6 7 7 7 7 7 7 7 7 6 6 5 5 4 4 4 4 4 4 4 4 4 3 3 3 3 3 3 4 4
3 3 3 2 2 2 2 2 3 3 4 3 4 4 4 3 3 3 3 3 3 3 3 3 3 3 3 2 2 4 6 7 7 7 8 8 9 9 10 10 10 10 10 9 9 8 8 7 7 6 6 6 6 6 6 6 6 6 6 6 6 6 6 6 6 5 5 5 4 4 3 3 3 3 3 3 3 3 3 3 3 2 2 3 3 4
3 2 2 2 2 2 2 2 3 3 3 3 3 3 3 3 3 3 3 3 3 3 3 3 3 3 3 2 2 4 5 6 6 7 7 8 9 9 10 10 11 10 10 9 9 8 7 7 6 6 6 6 6 6 6 6 6 6 6 5 5 5 5 5 4 4 4 3 3 3 3 2 2 3 3 3 3 3 3 3 3 3 2 2 2 3
3 3 3 2 2 2 2 2 3 3 3 3 3 3 3 3 2 3 3 3 3 2 3 3 2 2 2 2 2 3 4 5 5 6 7 8 8 9 10 10 11 10 10 9 9 8 7 7 6 6 6 6 6 6 6 6 5 5 5 4 4 4 3 3 3 3 3 2 2 2 2 2 2 2 2 2 3 3 3 3 3 3 2 2 2 2
4 4 4 3 3 3 2 2 3 3 3 3 4 4 4 3 3 2 2 2 2 2 2 2 2 2 2 2 2 3 3 3 3 3 4 5 7 8 9 10 10 10 10 9 8 8 7 6 6 6 5 5 5 6 5 5 5 4 4 3 3 2 2 2 2 2 2 2 1 1 1 1 1 1 1 1 2 2 3 3 3 3 3 2 2 2
4 4 4 3 3 3 3 3 3 3 3 3 3 3 4 4 4 4 3 2 1 1 1 2 3 3 2 2 2 3 4 4 4 5 5 4 3 4 6 7 8 9 9 8 8 7 6 6 6 6 5 5 5 5 5 4 4 3 2 2 1 1 1 1 1 1 1 1 1 1 1 1 1 0 0 1 1 1 2 2 3 3 3 2 2 2
4 4 4 3 3 2 2 2 2 2 2 2 2 2 3 4 4 5 5 4 3 2 1 1 2 2 3 2 2 3 3 4 5 6 7 7 7 6 6 6 6 7 7 7 7 6 6 5 5 5 5 5 5 5 4 3 3 2 1 1 1 1 0 0 0 0 1 1 1 1 1 1 1 1 1 1 0 0 1 2 2 3 3 3 2 2
3 3 3 3 3 2 2 2 2 2 2 2 3 3 3 4 4 5 5 5 4 4 2 1 1 1 2 2 2 3 3 4 4 4 4 5 5 5 5 5 5 5 5 6 6 5 5 4 4 5 5 5 4 4 3 2 1 1 1 1 1 1 1 1 0 0 1 1 1 1 1 1 1 1 1 1 1 1 1 1 2 2 2 2 2 2
3 3 3 3 3 3 3 3 3 3 3 4 5 5 5 5 5 4 4 5 5 4 4 3 2 1 1 1 1 2 3 3 3 3 3 2 3 3 2 3 3 3 3 4 4 4 4 3 3 4 4 4 4 3 3 2 1 1 1 2 2 2 2 1 1 0 0 1 1 1 1 1 1 1 1 2 2 2 2 2 2 2 2 2 2 2
3 3 3 3 4 4 4 4 4 5 5 6 6 6 5 5 4 4 3 4 4 4 4 3 3 2 1 1 1 1 2 3 3 3 3 2 2 2 1 2 2 2 2 2 2 3 3 3 2 2 3 3 3 3 2 2 2 2 2 2 2 3 2 2 1 1 0 0 1 1 1 1 1 1 1 2 2 3 3 3 2 2 2 2 2 2
4 4 4 4 4 4 4 5 5 6 6 6 5 4 4 4 4 4 4 4 4 4 3 3 3 2 2 1 1 0 1 2 3 4 3 2 2 2 1 1 1 2 1 2 2 2 2 2 1 1 2 2 2 2 1 2 2 2 3 3 3 3 3 2 1 1 0 0 1 1 0 0 0 1 1 2 2 3 3 3 3 3 3 3 3 3
4 4 5 5 5 5 5 5 6 6 6 5 4 4 4 5 5 5 4 5 5 4 4 4 4 3 2 2 1 1 1 2 3 4 3 2 2 1 1 0 1 2 1 1 1 2 1 1 1 1 1 2 1 1 1 2 2 3 3 3 3 3 3 2 2 1 1 1 1 1 1 0 0 1 1 2 2 3 3 3 3 3 3 3 3 3
4 4 5 5 5 5 5 5 5 5 5 4 3 3 4 5 5 5 5 5 5 4 4 4 4 4 3 3 3 2 2 2 3 3 3 3 2 1 1 0 1 2 2 2 1 1 1 1 1 1 1 2 2 2 2 2 3 3 3 4 4 3 3 3 2 2 1 1 1 1 1 0 0 1 1 2 2 2 2 2 3 3 3 3 3 3
4 5 5 5 5 5 5 5 5 4 3 3 3 3 3 4 4 4 5 5 5 5 5 5 4 4 4 4 4 4 3 3 3 3 3 3 2 1 0 0 0 1 2 2 2 1 1 1 1 1 1 1 1 2 3 3 3 3 4 4 4 4 3 3 2 2 1 1 1 1 1 1 1 1 1 2 2 2 2 2 2 2 2 2 3 3
5 5 5 5 5 5 5 5 5 5 4 4 4 4 3 3 3 4 4 5 5 6 6 5 4 3 3 3 4 4 3 3 3 3 3 3 2 2 1 1 1 1 2 2 2 2 1 1 1 1 1 1 1 2 3 3 3 4 4 4 4 4 4 3 3 2 2 1 2 2 1 1 1 2 2 2 2 2 2 2 2 2 2 2 2 2
4 5 5 5 4 4 4 5 5 6 6 6 5 5 4 4 4 4 4 4 5 4 4 4 4 3 2 3 3 3 2 2 3 3 4 3 3 2 2 1 2 2 3 2 2 2 1 1 1 1 1 2 2 3 3 3 3 3 3 4 4 4 4 3 3 2 2 2 2 2 2 2 2 2 2 2 2 2 2 2 2 2 2 2 2 2
5 5 5 4 4 4 4 4 5 6 7 7 6 5 5 5 5 5 5 4 4 4 3 3 3 2 2 3 3 3 3 3 3 3 3 3 2 2 2 1 2 3 3 2 2 2 1 1 1 1 2 2 2 3 3 3 3 3 3 3 4 4 4 3 3 2 2 2 2 2 2 2 2 2 2 2 2 2 2 2 2 2 2 2 2 2
4 5 5 4 4 4 3 4 5 7 8 8 7 6 5 6 6 6 5 5 4 4 4 2 2 3 3 3 3 3 2 3 3 3 3 3 3 3 2 2 2 3 3 2 2 2 2 1 1 2 2 1 2 2 2 3 3 3 3 3 4 4 4 3 3 3 3 3 2 2 2 2 2 2 2 2 2 2 2 2 2 1 1 1 2 2
4 4 4 4 4 3 3 4 5 6 7 7 7 6 5 6 6 6 6 5 5 4 3 4 4 3 3 3 3 2 1 1 2 2 3 3 3 3 3 2 2 2 3 2 2 2 2 2 2 2 1 1 1 1 2 2 3 3 4 4 4 4 4 4 4 3 3 3 3 3 3 2 2 2 2 2 1 1 1 1 1 1 1 2 2 2
4 3 3 3 3 3 3 4 5 5 6 5 4 4 3 3 4 4 4 4 4 4 4 4 4 4 3 3 3 3 2 1 1 1 2 3 2 2 3 2 2 3 2 2 2 2 2 2 2 2 2 1 1 1 2 2 3 4 4 4 4 5 5 4 4 4 4 3 3 3 3 2 2 2 1 1 1 1 1 1 1 1 2 2 2 2
2 1 1 2 3 3 4 5 6 6 6 5 4 4 4 5 5 5 5 5 5 5 5 5 4 3 3 3 3 3 2 1 0 1 2 2 2 2 2 2 2 2 2 2 2 2 2 2 2 2 2 1 1 1 2 3 4 5 5 5 5 5 5 5 5 5 4 4 3 3 3 2 2 2 1 1 0 0 0 1 1 2 2 2 2 3
1 2 2 3 4 5 6 7 8 9 9 7 6 6 6 6 6 6 5 5 5 5 5 5 4 4 3 3 3 3 2 1 0 1 1 1 2 2 2 1 1 2 2 2 2 2 2 3 3 3 2 2 1 1 2 3 4 5 6 6 6 6 6 6 5 5 4 4 4 3 3 3 2 2 2 1 1 1 1 1 1 2 2 3 3 3
5 5 6 6 7 8 8 10 11 12 12 11 9 8 7 7 6 6 5 5 6 6 6 5 5 4 3 3 3 3 3 2 1 1 1 1 1 2 2 2 2 2 2 2 2 2 2 2 2 2 2 1 1 0 2 3 5 6 7 7 7 6 6 6 5 5 4 4 4 3 3 3 3 3 2 2 2 2 2 2 2 2 3 3 3 3
8 8 8 8 9 9 10 11 12 13 13 13 13 12 9 7 6 6 6 6 6 6 6 5 5 4 4 3 3 3 3 3 2 2 1 1 1 2 2 2 2 2 2 2 2 2 1 1 1 1 1 1 1 0 1 3 4 5 7 7 7 7 6 5 5 4 4 3 3 3 3 3 3 3 2 2 2 2 2 2 2 3 3 3 3 2
10 10 10 10 10 10 11 11 11 12 13 14 13 11 8 6 5 6 6 6 6 6 5 5 4 4 4 3 3 3 2 3 3 3 2 2 2 2 3 2 2 2 2 2 2 2 1 1 1 1 1 1 1 0 0 1 3 4 6 7 7 6 6 5 4 4 3 3 2 2 1 1 2 2 2 2 2 2 2 2 3 3 3 3 3 2
9 9 10 10 10 10 10 10 10 11 12 12 11 8 5 4 3 4 5 5 6 5 5 5 4 4 4 3 3 2 3 3 4 4 3 3 2 2 3 3 3 2 2 2 2 2 2 2 2 1 1 1 1 1 0 0 1 1 3 5 6 5 5 4 4 4 3 3 2 2 1 1 0 0 1 1 2 2 3 3 3 3 3 3 2 2
7 7 7 8 8 8 8 8 8 9 9 9 7 5 3 2 2 3 4 4 5 5 4 4 4 4 4 3 3 3 3 3 4 5 4 3 2 2 3 3 3 2 1 1 2 2 2 2 2 2 2 2 1 1 1 1 1 1 2 3 4 4 4 4 4 4 3 3 2 2 2 2 1 1 1 2 2 3 3 4 4 4 3 3 3 3
5 5 5 5 5 5 6 6 6 6 6 5 4 4 3 3 3 3 3 3 3 3 4 4 4 4 4 4 3 2 2 3 4 5 5 3 2 2 2 3 3 2 1 1 1 0 1 2 2 2 3 2 2 2 1 1 1 1 1 3 3 3 4 3 3 3 3 2 2 2 1 1 2 2 2 3 3 4 4 5 5 5 4 3 3 3
5 4 4 4 4 4 4 5 5 5 4 4 3 3 3 3 3 3 3 2 2 3 3 4 4 4 4 4 3 2 2 3 4 6 6 3 2 2 2 3 3 3 2 0 1 1 0 1 2 2 2 2 2 2 2 1 1 0 0 1 2 3 3 2 2 2 2 2 1 1 1 0 1 2 3 3 4 5 5 6 6 6 5 4 4 4
5 5 5 5 5 5 5 5 5 5 4 4 4 3 3 4 4 3 3 2 2 2 3 3 4 4 4 3 2 2 2 3 5 6 6 3 2 2 3 3 3 3 3 2 1 0 1 1 2 2 2 2 2 2 2 2 1 1 0 0 1 2 2 2 2 2 2 2 2 2 2 1 2 2 3 3 4 5 6 6 7 7 7 6 5 4
5 5 5 5 5 5 5 5 5 5 4 4 4 4 4 4 4 4 3 3 3 2 2 2 2 2 3 3 3 2 3 4 5 6 5 3 3 2 3 3 3 4 3 3 2 2 1 2 2 2 2 2 3 3 3 2 2 1 1 1 1 1 2 2 1 1 2 2 2 2 2 2 2 2 3 3 4 5 5 6 7 7 8 7 6 5
5 5 5 5 5 5 5 5 5 5 4 4 3 3 4 4 4 4 3 3 3 3 3 3 3 2 1 1 1 2 3 4 6 6 5 3 3 3 3 3 3 4 4 3 3 3 2 2 2 3 3 3 3 3 3 3 2 2 2 2 2 2 2 2 1 1 2 2 2 2 2 2 2 2 2 3 3 4 5 6 7 7 8 8 8 7
5 5 5 5 5 5 5 5 5 5 4 4 3 3 4 4 4 4 4 4 4 4 4 4 4 4 4 3 2 2 4 5 6 6 6 3 2 2 2 3 3 3 3 3 3 3 3 3 3 3 3 3 3 3 3 3 3 3 3 3 3 3 2 2 2 2 2 2 3 3 2 2 2 2 2 3 3 4 5 6 6 7 7 8 8 8
5 5 5 4 4 5 5 5 5 4 4 4 4 4 4 4 4 4 4 4 4 4 4 4 4 5 6 5 4 4 5 6 7 7 6 4 2 2 2 2 3 3 3 3 3 3 3 3 3 3 3 3 2 2 3 3 4 4 4 3 3 3 3 3 3 2 3 3 3 3 3 3 2 2 2 2 3 3 4 4 5 6 6 6 7 8
5 5 5 4 4 4 4 4 4 4 4 4 4 4 4 4 5 4 4 4 4 4 4 4 4 4 5 6 6 6 6 6 5 5 5 3 2 2 2 2 3 3 2 2 2 3 3 3 3 3 3 3 2 2 3 3 3 4 4 3 3 3 4 3 3 3 3 3 3 3 3 3 3 2 3 2 3 3 3 3 4 4 4 4 5 6
5 5 5 4 4 4 4 4 4 4 4 5 5 4 4 4 4 4 4 4 4 4 5 5 4 4 4 5 5 6 6 5 4 4 3 2 2 1 2 2 3 3 2 2 2 3 3 3 3 2 2 2 2 3 3 3 3 3 4 3 3 3 4 4 4 3 3 3 3 3 3 3 3 3 3 3 3 3 3 3 3 3 3 3 3 4
5 5 5 4 4 3 3 4 4 4 4 4 4 4 3 3 3 3 3 3 3 3 3 3 4 4 4 4 4 5 5 4 4 4 3 2 1 0 1 2 2 3 3 2 2 2 3 2 2 2 2 2 2 3 3 3 4 4 4 3 2 2 3 4 4 3 3 2 2 3 3 3 3 3 3 3 3 3 3 3 2 2 2 3 3 3
5 5 5 4 4 3 3 4 4 4 4 4 4 4 4 3 3 4 4 3 3 3 3 3 3 3 3 3 3 3 3 3 3 3 3 2 1 0 0 1 2 2 2 3 3 3 3 2 2 2 2 2 2 2 2 3 4 4 4 3 2 2 2 3 3 3 2 2 2 2 3 3 3 3 3 3 3 3 3 3 3 3 3 3 3 3
5 5 5 5 4 4 5 5 4 4 4 3 4 4 4 4 4 4 4 4 4 4 4 3 3 4 4 3 3 3 2 2 2 2 2 2 1 1 1 1 2 2 2 3 3 3 3 2 2 2 2 2 2 2 2 2 3 3 4 3 3 2 2 2 3 3 3 3 3 3 3 3 2 2 2 2 2 2 3 3 4 4 4 4 4 4
5 4 5 5 5 4 4 4 4 4 4 4 4 4 4 4 4 5 4 4 4 4 4 3 3 4 4 4 4 3 3 3 2 2 2 2 1 0 1 1 2 3 3 3 3 3 3 3 3 2 2 2 2 2 2 2 2 3 3 3 3 3 2 2 2 3 3 3 3 3 3 3 2 2 2 2 3 3 3 3 4 4 5 4 4 4
5 5 5 5 5 4 4 4 4 4 4 4 4 4 4 4 5 5 4 4 4 5 4 4 3 3 3 3 3 3 3 3 3 2 2 2 2 1 1 2 2 3 3 3 3 3 3 3 3 3 2 2 2 3 3 3 3 3 3 3 3 3 3 2 2 2 3 3 3 3 3 3 2 2 2 3 3 3 3 4 4 4 4 4 4 4
5 5 5 5 5 5 5 5 4 4 4 4 4 4 4 4 4 4 4 5 5 5 4 4 4 3 3 3 3 3 4 3 3 3 3 3 2 2 2 1 2 2 2 3 3 3 3 2 2 3 3 3 3 3 4 3 3 3 3 3 3 3 3 3 3 3 3 3 3 3 3 3 2 2 3 3 3 3 3 4 4 4 4 4 4 4
5 6 6 5 5 5 5 5 5 4 4 4 4 4 4 4 4 4 4 5 5 4 4 4 4 4 4 4 4 4 4 4 4 4 4 4 3 3 2 2 1 1 2 2 2 2 2 2 1 2 3 3 3 4 4 4 4 3 3 3 3 3 3 3 3 3 3 3 3 2 3 3 3 3 3 3 3 3 3 3 4 4 4 4 4 4
6 6 6 6 6 6 5 5 5 5 5 5 5 4 4 4 4 5 4 4 4 4 4 4 4 4 4 4 4 4 4 4 4 4 4 4 4 3 3 2 2 2 1 1 2 2 2 2 2 3 3 3 3 3 3 4 4 3 3 3 3 3 3 3 3 3 3 3 2 2 2 3 3 3 3 2 2 2 3 3 3 4 4 4 4 4
6 6 7 6 6 6 6 6 6 6 5 5 5 5 4 4 5 5 4 4 4 4 4 4 4 4 4 4 4 4 4 4 4 4 4 4 4 4 4 3 3 3 2 2 2 2 2 3 4 4 5 4 4 3 3 3 3 3 3 3 3 3 3 3 3 3 3 3 3 3 3 3 2 2 2 2 2 2 3 3 3 3 4 4 4 4
6 7 7 7 6 6 6 6 6 6 6 6 6 5 5 4 4 4 4 4 4 4 4 4 4 4 4 4 4 4 4 4 4 4 4 4 4 4 4 4 4 4 3 3 3 3 3 3 4 6 8 8 7 5 4 3 3 3 3 3 3 3 3 2 2 2 3 3 3 3 3 3 2 2 2 2 3 3 3 3 3 3 3 3 3 4
7 7 7 7 7 6 6 6 6 6 6 6 6 6 5 5 4 4 4 4 4 4 4 4 4 4 4 4 4 4 4 4 4 4 4 4 4 4 4 4 4 4 3 3 3 3 3 3 3 5 7 10 10 8 5 4 3 3 3 3 3 3 3 2 2 2 2 3 3 3 3 3 3 3 3 2 3 3 3 3 3 3 3 3 3 3
Wind_Direction
125 135 144 154 155 159 168 168 163 157 154 149 144 138 128 114 103 96 94 95 100 107 116 122 129 134 139 142 143 143 143 143 143 143 143 141 139 137 136 134 131 127 121 115 109 103 99 94 89 85 82 79 78 77 75 74 73 72 69 69 69 69 69 69 68 66 66 64 63 61 59 54 44 33 24 19 16 15 15 15 10 3 355 346 342 342
134 139 151 162 162 161 164 169 166 160 155 151 147 142 136 127 114 96 80 78 79 83 92 105 121 133 141 144 145 146 146 147 147 148 147 145 143 141 140 139 136 132 126 120 115 109 104 99 94 89 84 80 76 74 71 70 68 66 64 62 61 60 59 59 58 56 55 54 52 50 46 41 32 22 14 10 7 6 5 5 1 356 349 341 334 330
149 154 162 169 169 167 162 169 167 162 154 149 146 143 140 133 122 102 83 75 70 67 67 73 95 117 133 142 147 149 149 150 151 152 151 149 146 145 144 144 142 138 133 127 121 115 110 105 100 95 89 84 80 77 74 72 69 67 64 62 59 57 56 54 52 50 48 45 42 39 33 27 18 9 3 360 358 356 356 355 354 351 348 340 332 326
158 163 167 169 170 168 155 158 156 151 143 137 137 137 136 126 113 99 89 87 80 72 63 63 71 84 101 123 142 148 150 152 154 155 156 153 150 149 149 149 147 144 139 133 127 121 115 111 106 101 95 90 86 82 79 76 73 70 67 64 61 58 55 52 50 46 43 39 34 28 21 13 4 357 352 349 346 345 344 344 345 345 343 337 330 326
162 164 163 162 158 149 132 131 128 125 119 118 120 121 116 106 101 98 93 90 85 79 69 62 61 64 68 81 127 144 148 151 155 158 159 156 154 153 153 153 152 148 144 138 132 126 121 116 111 106 101 97 93 90 87 84 80 76 72 67 63 60 55 51 47 43 39 33 26 18 9 0 352 345 340 336 334 331 329 330 331 333 335 332 329 327
159 157 156 150 138 120 110 117 119 118 115 107 101 96 91 92 96 101 101 95 90 84 75 66 58 53 49 54 115 140 146 152 157 161 162 160 158 157 157 157 155 152 147 142 136 131 125 120 116 112 108 104 101 98 96 92 88 82 77 71 66 61 55 50 45 39 34 27 20 10 360 351 342 334 328 324 321 318 316 315 316 318 322 326 328 329
147 145 143 127 110 104 112 124 132 134 132 121 108 98 92 89 89 90 93 95 96 93 87 76 63 51 41 47 94 129 143 152 159 164 166 164 163 162 162 161 158 154 149 144 139 134 129 124 121 118 114 111 108 105 102 98 93 88 82 75 69 63 56 50 43 37 29 21 13 4 353 343 334 325 318 315 312 311 309 307 306 307 310 318 325 330
145 146 147 133 119 114 120 135 148 152 150 143 134 125 117 103 90 83 81 85 92 100 102 94 80 63 49 60 90 116 134 152 163 169 171 170 169 168 166 163 159 154 149 144 141 137 133 130 127 124 122 117 112 108 103 99 95 90 84 78 71 64 57 50 42 33 23 12 3 355 348 340 329 320 313 311 311 311 310 307 305 304 306 313 323 330
151 154 158 152 147 144 144 151 160 164 162 156 152 149 144 137 126 109 92 86 86 97 115 118 112 100 79 86 101 110 116 131 144 155 163 171 172 171 168 163 158 152 147 145 142 140 137 136 134 132 128 122 115 109 103 98 94 89 85 80 73 65 56 47 38 26 9 354 347 342 344 343 336 325 317 315 315 316 316 315 313 312 313 318 325 333
153 155 156 156 155 155 155 155 157 161 167 164 160 157 156 152 148 142 134 123 109 98 113 129 131 130 124 118 113 110 108 98 82 72 70 79 106 139 151 149 149 148 143 143 142 141 140 140 139 138 133 126 119 111 104 99 94 89 86 83 80 73 61 49 33 11 349 337 334 337 350 4 16 16 356 332 327 326 326 326 326 326 326 327 330 335
152 152 150 149 148 147 144 138 136 138 153 149 145 147 157 160 159 157 156 154 150 141 122 107 121 135 142 136 128 121 119 110 94 79 67 62 64 73 89 102 116 126 131 132 132 133 133 136 140 141 137 130 124 118 111 104 99 96 99 113 129 134 122 90 30 348 329 327 332 343 359 16 34 56 77 83 62 21 357 350 346 343 338 336 335 338
155 152 148 146 143 136 121 114 116 127 149 151 153 162 179 180 175 169 165 162 160 157 146 115 85 90 117 128 134 136 139 133 125 111 89 70 63 64 70 79 86 94 106 108 107 106 108 114 129 140 139 135 130 126 123 120 120 134 182 195 190 184 176 174 184 283 315 323 337 350 2 16 36 62 90 98 100 91 71 41 18 4 351 344 342 343
153 148 148 151 154 151 140 134 142 159 179 183 184 183 184 183 181 177 168 159 156 154 147 138 120 87 59 78 115 140 151 143 137 129 112 85 64 57 66 77 78 79 86 93 90 84 81 89 112 132 137 137 137 136 136 142 160 193 211 206 197 188 182 179 182 195 290 324 338 350 1 11 32 64 91 100 101 97 88 74 54 32 11 1 355 354
154 151 154 163 168 169 163 163 169 178 189 195 195 190 178 168 167 167 155 142 139 139 138 139 138 134 113 98 92 133 159 150 145 138 123 97 68 48 49 82 88 85 83 97 92 80 68 72 90 117 134 143 144 146 154 167 191 207 211 203 195 187 181 178 178 184 231 309 327 337 352 4 35 73 96 102 100 96 89 79 66 49 33 21 15 10
161 162 169 176 179 178 175 178 183 188 192 195 193 180 149 146 154 160 153 140 134 133 135 138 141 147 154 147 142 193 207 169 158 150 140 116 79 44 24 78 102 103 95 106 103 91 73 69 88 126 146 160 163 167 183 201 209 208 206 200 193 187 182 179 179 187 218 267 293 305 314 344 42 82 98 102 99 94 86 77 66 54 41 31 24 19
170 173 181 186 186 185 182 183 188 191 191 188 178 161 148 153 162 167 157 146 143 144 150 150 155 161 171 160 161 191 235 192 173 159 152 133 102 51 3 51 131 133 126 123 117 109 99 100 120 149 164 162 165 181 210 220 214 206 204 199 193 189 184 185 189 198 218 247 268 278 277 289 73 90 98 99 96 91 85 75 64 53 41 32 26 22
178 184 192 190 190 189 185 187 190 190 181 170 162 159 162 165 167 166 156 148 149 156 167 166 168 170 173 169 172 182 205 201 183 168 157 145 124 88 5 342 156 152 147 146 135 123 131 148 159 165 172 165 174 195 213 217 214 210 206 201 196 193 190 193 197 203 215 233 253 260 251 216 148 113 104 100 95 92 85 77 65 51 38 30 25 21
186 192 196 195 193 190 183 183 185 181 164 157 157 160 165 164 162 159 154 153 159 168 176 178 181 179 170 173 169 167 176 193 185 170 163 155 138 117 85 323 185 162 164 161 151 140 144 159 168 173 174 182 199 210 218 216 214 212 209 204 201 198 199 199 201 205 211 227 237 239 226 193 161 135 118 106 100 95 91 82 70 55 38 27 21 18
192 196 198 201 199 192 181 179 178 174 166 165 161 159 161 157 155 156 158 163 170 176 179 183 186 185 177 163 144 137 158 186 183 174 174 169 151 133 147 186 193 187 188 176 156 139 142 156 178 201 218 253 244 231 223 219 217 214 212 209 206 204 203 202 201 203 208 221 227 224 205 179 155 136 121 108 101 95 91 86 78 64 43 27 17 12
198 201 203 205 202 193 183 181 178 175 173 167 162 160 163 161 162 164 166 172 178 181 179 181 181 177 154 126 116 120 151 179 184 182 184 175 156 139 153 184 195 197 201 179 148 128 142 163 183 218 260 255 244 234 226 222 219 217 216 214 211 207 202 198 196 198 207 215 217 207 186 160 139 121 106 94 85 80 75 71 65 56 41 21 9 4
209 211 211 205 199 194 188 181 174 170 168 162 160 161 166 165 169 173 174 175 176 178 178 180 170 147 113 113 120 134 158 176 183 184 183 177 162 148 149 184 204 207 206 175 143 130 149 168 179 195 222 233 233 229 225 224 223 223 222 219 214 206 198 192 190 193 203 209 205 189 165 145 127 111 95 83 73 64 57 51 46 39 31 13 358 351
218 216 210 201 200 200 191 170 163 161 160 158 162 167 169 170 174 176 175 174 175 175 175 155 116 90 84 95 107 124 159 187 193 187 174 186 177 162 142 173 204 215 213 173 142 132 151 167 178 190 203 224 232 232 230 229 230 231 231 225 215 204 193 185 185 188 196 196 189 174 153 139 125 111 95 81 68 57 45 35 26 18 11 354 343 335
224 216 199 189 192 194 176 150 148 151 156 163 170 173 170 173 175 175 172 171 167 153 127 101 88 83 83 90 100 113 152 217 225 205 181 195 183 158 135 159 192 209 212 161 135 135 155 167 174 179 182 223 254 253 248 241 239 240 238 229 216 203 189 185 184 186 189 186 178 166 151 141 130 118 103 88 72 56 36 16 1 350 341 332 324 316
227 217 186 173 171 165 146 139 142 149 158 164 164 158 145 147 148 147 143 140 128 114 105 103 104 104 104 110 117 128 147 183 249 231 200 200 174 137 124 156 186 198 192 144 127 137 161 168 169 168 169 186 255 272 268 259 253 249 245 233 218 203 190 186 185 184 184 181 174 165 156 151 144 137 125 109 87 53 12 346 333 325 321 318 313 308
235 206 137 148 152 151 144 144 147 151 152 146 133 117 106 101 96 94 94 100 106 112 120 126 129 130 129 133 137 141 144 138 261 250 213 194 148 116 118 158 187 190 167 133 131 150 175 174 170 168 172 174 208 283 284 274 265 256 248 235 219 204 192 189 187 186 184 181 178 174 170 169 168 166 162 162 166 212 290 303 308 309 310 309 305 301
70 89 107 126 136 140 141 143 146 148 147 141 136 129 121 113 108 106 108 117 127 136 142 147 148 146 140 144 148 148 142 144 195 269 248 177 136 123 126 154 186 186 151 135 145 168 185 179 172 168 175 171 184 278 284 276 268 258 248 234 218 204 193 191 189 188 187 186 186 187 187 188 188 188 188 192 203 223 247 269 284 293 295 292 288 283
99 108 117 127 132 135 137 140 143 145 146 145 144 141 137 133 130 132 140 148 154 156 159 160 156 150 146 156 157 152 145 155 174 216 250 186 148 141 138 154 173 176 154 142 149 167 185 179 169 162 163 153 147 252 285 278 269 258 246 229 215 201 192 190 189 188 187 189 191 194 197 198 199 200 200 205 213 224 238 251 265 274 278 277 273 264
107 113 119 124 127 130 134 138 142 145 146 146 147 147 148 147 149 153 160 161 163 165 168 165 160 155 157 164 158 148 148 164 173 184 213 207 174 148 136 150 169 176 160 139 136 146 172 176 161 148 143 134 135 236 293 287 273 258 240 221 205 193 184 182 180 178 177 181 185 190 195 199 201 203 206 211 219 228 238 249 259 264 265 265 262 255
106 109 111 115 119 124 128 133 138 142 145 147 150 153 158 161 163 163 160 160 162 167 171 167 160 153 151 148 141 141 164 176 173 171 187 197 177 144 130 147 164 173 161 140 136 151 179 182 169 148 138 132 130 123 315 295 279 258 230 203 188 177 169 164 160 155 149 146 147 154 167 184 194 202 209 217 226 235 245 256 262 264 262 261 265 270
110 110 109 112 116 121 125 128 133 138 142 144 148 153 161 165 161 154 149 156 162 166 165 159 149 141 136 133 136 153 187 180 167 162 179 189 176 147 138 152 163 171 170 155 156 168 183 174 161 148 141 138 132 127 122 42 303 256 206 176 162 149 140 136 133 128 117 108 100 92 83 85 104 218 237 242 247 253 260 268 271 272 270 267 268 268
113 111 111 115 118 120 121 122 125 128 132 132 132 131 127 120 121 128 138 154 162 162 155 147 143 141 143 145 156 172 188 165 156 159 180 188 172 147 148 155 160 170 197 187 178 171 167 158 152 148 147 150 148 138 124 97 67 86 136 143 134 122 111 112 115 115 105 96 84 68 52 35 15 347 315 295 283 277 276 277 278 278 278 275 271 268
112 110 110 111 111 109 108 110 113 116 117 114 109 101 92 92 101 115 132 149 155 154 146 144 146 152 161 171 177 176 159 139 149 162 178 176 154 135 150 152 153 158 201 266 273 215 152 144 143 146 154 159 156 145 125 102 76 76 121 137 130 119 109 116 122 123 119 107 91 71 45 17 351 331 313 301 291 284 281 279 279 278 279 278 276 272
115 114 112 109 105 102 103 106 109 109 108 104 101 99 97 98 102 110 121 132 139 141 141 146 152 160 172 179 176 150 112 124 149 163 171 159 139 130 147 149 150 151 160 240 310 328 40 110 126 140 154 160 161 157 144 132 111 90 109 148 144 139 136 147 153 154 156 150 145 143 134 334 310 300 296 290 285 281 278 276 274 274 276 277 276 275
124 123 122 119 115 113 112 112 111 109 106 103 101 101 102 103 103 104 105 107 111 122 135 149 158 165 173 174 163 137 115 127 149 161 166 152 137 135 148 154 155 155 158 170 184 163 62 100 123 139 147 159 167 172 169 160 152 140 134 174 162 156 154 168 178 183 182 189 195 201 205 224 242 256 270 273 274 273 272 271 269 268 267 269 271 273
133 132 132 130 127 124 121 118 115 112 108 103 100 98 99 99 99 97 93 88 83 82 88 113 139 158 171 171 165 152 136 137 150 159 162 150 139 138 148 160 163 163 165 171 173 168 147 143 147 152 150 158 169 178 179 171 162 159 172 200 197 181 166 174 186 197 204 215 222 224 222 227 234 242 253 260 266 268 270 269 267 265 263 263 264 265
142 142 142 140 138 135 132 128 125 120 113 104 98 94 93 92 89 85 80 75 71 69 65 59 54 51 56 113 145 141 132 135 147 157 161 153 146 143 150 161 166 169 170 173 174 172 163 157 159 165 166 168 171 173 171 167 168 174 185 196 199 196 183 183 193 211 224 232 236 236 234 235 239 244 249 257 264 268 269 268 267 265 262 261 260 260
149 150 150 148 146 144 141 137 133 127 121 115 106 98 90 87 83 79 73 68 68 70 71 66 59 50 42 40 56 90 117 132 145 155 160 156 151 149 147 152 162 170 175 173 172 170 165 160 164 174 187 188 179 166 157 163 174 187 195 194 195 194 189 186 195 212 232 242 246 249 248 246 247 249 249 254 257 260 261 261 259 258 258 258 258 259
156 155 155 154 152 149 146 142 138 132 127 121 112 102 92 86 83 79 75 70 71 74 78 75 69 62 55 59 68 85 108 126 138 148 154 152 150 146 137 140 156 171 181 176 173 172 172 171 174 180 192 195 181 158 147 161 176 187 191 189 190 194 195 191 195 206 224 239 248 254 256 254 252 251 249 248 246 247 249 244 241 242 246 248 252 255
161 160 159 159 157 155 151 145 138 130 120 112 106 100 96 92 88 85 80 76 73 72 74 75 74 69 61 65 73 83 93 108 119 130 137 139 141 142 138 142 153 164 174 181 184 185 187 189 189 187 185 182 173 161 153 168 178 182 178 180 190 199 200 195 197 204 217 232 243 251 255 252 248 246 245 242 240 239 239 236 231 229 231 235 241 245
166 164 163 163 162 158 150 137 126 118 112 109 107 107 106 103 99 94 89 84 79 76 76 77 77 73 65 65 68 73 79 89 99 106 109 112 125 148 155 151 151 154 159 176 193 200 204 207 205 198 187 176 168 165 165 175 181 182 178 183 193 197 191 189 192 200 211 225 236 245 250 248 245 240 237 233 232 232 235 235 231 227 228 235 239 239
168 166 163 160 155 143 124 112 108 109 111 115 118 120 122 121 119 117 112 105 100 96 95 94 91 85 76 68 65 67 70 74 78 80 77 74 79 155 176 152 147 147 154 171 190 205 214 215 211 205 195 182 172 169 172 177 180 184 190 201 204 195 181 187 190 193 199 212 224 234 240 239 234 231 228 225 225 226 231 239 241 241 237 240 243 244
168 165 158 150 139 125 107 104 106 111 118 125 131 136 141 142 142 142 140 137 133 130 132 131 127 120 112 103 92 81 70 68 70 73 72 59 38 338 217 152 142 143 155 170 186 201 215 218 215 206 198 191 187 184 184 179 180 185 198 211 216 214 209 198 186 176 184 195 202 209 219 223 221 218 216 218 220 222 227 236 242 245 245 242 241 242
168 160 147 136 128 121 116 116 119 125 133 141 146 149 152 155 156 155 153 151 150 150 153 154 152 147 141 139 134 124 103 82 74 80 90 83 50 307 254 181 159 155 166 177 186 195 207 217 221 216 205 201 203 205 201 190 187 191 199 206 209 211 217 187 167 161 175 184 189 193 202 209 211 212 215 225 232 235 232 235 237 239 242 243 240 238
156 143 131 126 124 124 126 132 138 146 152 155 155 155 156 161 163 162 159 155 153 153 156 162 162 159 156 156 154 149 137 123 105 88 87 99 109 252 270 217 188 181 187 192 192 190 191 207 215 215 208 208 214 219 216 208 203 200 199 198 203 212 225 198 167 163 175 185 188 190 197 203 209 220 234 241 242 241 237 235 233 233 236 239 240 238
137 129 128 130 133 138 143 148 152 156 160 159 157 155 155 162 165 165 162 156 153 154 157 162 165 167 170 168 163 155 148 145 140 133 123 120 130 169 241 229 212 203 205 211 210 204 196 199 198 196 191 204 218 224 226 221 216 212 204 199 204 216 230 231 212 196 197 200 199 195 191 191 203 225 241 241 238 236 233 233 232 232 231 233 235 236
135 135 137 140 145 150 153 155 156 158 161 159 156 153 152 158 162 163 160 156 154 155 160 167 173 177 179 175 169 163 160 160 159 156 150 145 149 162 187 210 221 223 223 226 229 230 228 219 198 181 174 194 211 221 226 224 223 219 213 205 206 212 220 223 221 218 215 215 210 197 180 178 194 220 233 236 236 235 233 232 232 231 230 231 231 233
146 146 148 150 153 156 157 156 158 160 163 161 156 152 151 155 159 161 159 157 156 157 162 172 181 188 188 180 174 172 173 171 168 162 156 151 151 153 158 172 196 227 244 249 253 258 262 275 254 212 191 197 205 211 213 214 217 220 219 213 212 214 217 216 214 212 210 214 208 191 167 176 197 217 226 230 233 235 233 231 230 230 230 230 231 231
154 153 154 155 157 159 159 160 162 164 166 162 157 152 152 157 161 161 158 158 159 160 165 177 188 195 194 185 180 179 180 176 169 162 157 152 149 148 150 154 164 181 207 236 258 266 268 279 273 255 235 224 219 214 207 205 207 212 216 214 216 220 222 219 211 202 199 201 193 181 176 192 208 218 222 227 232 234 233 229 226 224 224 226 227 230
156 156 157 158 160 162 163 163 165 167 168 163 158 154 154 159 164 165 161 162 165 169 174 182 190 195 194 185 181 180 184 179 171 162 157 152 149 149 151 156 160 166 173 187 205 222 232 237 239 240 240 240 239 237 228 215 209 207 209 212 217 222 226 221 210 199 192 181 170 169 196 215 224 228 231 238 243 245 245 240 233 225 219 218 222 227
159 159 160 162 163 165 164 165 167 169 169 164 160 156 156 162 167 170 168 169 173 178 183 187 191 194 194 186 180 179 184 183 177 168 162 155 154 155 157 162 166 169 171 179 189 199 207 215 220 222 224 226 229 234 240 233 223 214 210 213 216 219 224 221 209 197 191 177 164 164 192 215 224 227 230 241 248 252 254 249 241 229 214 209 214 222
162 162 163 165 166 166 165 166 168 170 170 165 161 158 158 164 169 173 174 177 181 186 189 191 195 197 197 187 181 179 184 185 183 177 169 159 158 161 164 169 173 177 180 182 187 194 204 212 213 211 209 209 213 218 228 230 227 221 214 212 211 213 215 216 205 193 190 184 170 164 177 198 206 208 212 226 239 246 249 246 238 227 207 200 206 215